When you browse on this site, cookies collect data to enhance your experience and personalize the content and advertising you see.
Visit our Privacy Policy to learn more. By continuing to use the site, you agree to this use of cookies and data.
  • In Hungary
  • List of Countries
  • For 7 days
  • Water Temperature
  • Weather Map
  • News
  • Weather Widgets
  • user-avatar
    Login

    Hourly Weather Bol

    Today, 18 November, Monday

    Time Temperature Precipitation Wind Pressure Humidity
    00:00 +27°C° 0 mm 0 mps 728 mmHg 26%
    01:00 +28°C° 0 mm 1 mps 728 mmHg 27%
    02:00 +28°C° 0 mm 1 mps 727 mmHg 28%
    03:00 +27°C° 0 mm 1 mps 727 mmHg 29%
    04:00 +26°C° 0 mm 1 mps 727 mmHg 30%
    05:00 +27°C° 0 mm 1 mps 727 mmHg 30%
    06:00 +25°C° 0 mm 0 mps 728 mmHg 31%
    07:00 +27°C° 0 mm 0 mps 729 mmHg 31%
    08:00 +30°C° 0 mm 0 mps 729 mmHg 27%
    09:00 +35°C° 0 mm 1 mps 729 mmHg 22%
    10:00 +37°C° 0 mm 1 mps 729 mmHg 18%
    11:00 +39°C° 0 mm 1 mps 728 mmHg 16%
    12:00 +40°C° 0 mm 2 mps 728 mmHg 14%
    13:00 +41°C° 0 mm 2 mps 728 mmHg 13%
    14:00 +41°C° 0 mm 2 mps 727 mmHg 13%
    15:00 +40°C° 0 mm 2 mps 726 mmHg 13%
    16:00 +40°C° 0 mm 2 mps 726 mmHg 14%
    17:00 +38°C° 0 mm 2 mps 726 mmHg 16%
    18:00 +35°C° 0 mm 1 mps 726 mmHg 18%
    19:00 +32°C° 0 mm 1 mps 727 mmHg 20%
    20:00 +32°C° 0 mm 1 mps 727 mmHg 21%
    21:00 +31°C° 0 mm 1 mps 728 mmHg 22%
    22:00 +28°C° 0 mm 0 mps 728 mmHg 23%
    23:00 +28°C° 0 mm 0 mps 728 mmHg 24%

    Tomorrow, 19 November, Tuesday

    Time Temperature Precipitation Wind Pressure Humidity
    00:00 +27°C° 0 mm 0 mps 728 mmHg 25%
    01:00 +26°C° 0 mm 0 mps 728 mmHg 27%
    02:00 +26°C° 0 mm 0 mps 728 mmHg 27%
    03:00 +28°C° 0 mm 1 mps 728 mmHg 28%
    04:00 +27°C° 0 mm 1 mps 728 mmHg 29%
    05:00 +28°C° 0 mm 1 mps 728 mmHg 30%
    06:00 +26°C° 0 mm 0 mps 729 mmHg 31%
    07:00 +26°C° 0 mm 0 mps 729 mmHg 32%
    08:00 +31°C° 0 mm 1 mps 730 mmHg 27%
    09:00 +34°C° 0 mm 1 mps 730 mmHg 23%
    10:00 +37°C° 0 mm 1 mps 730 mmHg 18%
    11:00 +39°C° 0 mm 2 mps 729 mmHg 17%
    12:00 +40°C° 0 mm 2 mps 729 mmHg 15%
    13:00 +41°C° 0 mm 2 mps 728 mmHg 13%
    14:00 +42°C° 0 mm 3 mps 727 mmHg 14%
    15:00 +42°C° 0 mm 3 mps 727 mmHg 14%
    16:00 +40°C° 0 mm 3 mps 726 mmHg 14%
    17:00 +38°C° 0 mm 2 mps 727 mmHg 16%
    18:00 +36°C° 0 mm 2 mps 727 mmHg 18%
    19:00 +33°C° 0 mm 1 mps 727 mmHg 20%
    20:00 +32°C° 0 mm 1 mps 727 mmHg 21%
    21:00 +31°C° 0 mm 1 mps 728 mmHg 22%
    22:00 +30°C° 0 mm 1 mps 728 mmHg 23%
    23:00 +30°C° 0 mm 1 mps 728 mmHg 23%

    Day after tomorrow, 20 November, Wednesday

    Time Temperature Precipitation Wind Pressure Humidity
    00:00 +29°C° 0 mm 1 mps 728 mmHg 24%
    01:00 +29°C° 0 mm 1 mps 728 mmHg 24%
    02:00 +28°C° 0 mm 1 mps 728 mmHg 25%
    03:00 +27°C° 0 mm 1 mps 727 mmHg 25%
    04:00 +27°C° 0 mm 1 mps 727 mmHg 26%
    05:00 +27°C° 0 mm 1 mps 728 mmHg 26%
    06:00 +27°C° 0 mm 1 mps 728 mmHg 27%
    07:00 +28°C° 0 mm 1 mps 729 mmHg 28%
    08:00 +31°C° 0 mm 1 mps 729 mmHg 23%
    09:00 +34°C° 0 mm 1 mps 729 mmHg 18%
    10:00 +38°C° 0 mm 2 mps 730 mmHg 14%
    11:00 +39°C° 0 mm 2 mps 729 mmHg 12%
    12:00 +40°C° 0 mm 2 mps 728 mmHg 11%
    13:00 +42°C° 0 mm 3 mps 728 mmHg 9%
    14:00 +42°C° 0 mm 3 mps 727 mmHg 9%
    15:00 +41°C° 0 mm 2 mps 727 mmHg 9%
    16:00 +40°C° 0 mm 2 mps 726 mmHg 10%
    17:00 +38°C° 0 mm 2 mps 727 mmHg 12%
    18:00 +34°C° 0 mm 1 mps 727 mmHg 14%
    19:00 +32°C° 0 mm 1 mps 727 mmHg 16%
    20:00 +31°C° 0 mm 1 mps 727 mmHg 16%
    21:00 +31°C° 0 mm 1 mps 728 mmHg 17%
    22:00 +30°C° 0 mm 1 mps 728 mmHg 18%
    23:00 +29°C° 0 mm 1 mps 728 mmHg 18%

    21 November, Thursday

    Time Temperature Precipitation Wind Pressure Humidity
    00:00 +29°C° 0 mm 1 mps 728 mmHg 19%
    01:00 +28°C° 0 mm 1 mps 728 mmHg 20%
    02:00 +27°C° 0 mm 1 mps 728 mmHg 20%
    03:00 +27°C° 0 mm 1 mps 727 mmHg 21%
    04:00 +26°C° 0 mm 1 mps 727 mmHg 22%
    05:00 +26°C° 0 mm 1 mps 728 mmHg 23%
    06:00 +27°C° 0 mm 1 mps 728 mmHg 24%
    07:00 +27°C° 0 mm 1 mps 729 mmHg 24%
    08:00 +30°C° 0 mm 2 mps 729 mmHg 20%
    09:00 +35°C° 0 mm 3 mps 729 mmHg 17%
    10:00 +38°C° 0 mm 3 mps 730 mmHg 13%
    11:00 +40°C° 0 mm 4 mps 729 mmHg 12%
    12:00 +41°C° 0 mm 4 mps 728 mmHg 11%
    13:00 +42°C° 0 mm 4 mps 727 mmHg 10%
    14:00 +42°C° 0 mm 4 mps 727 mmHg 10%
    15:00 +42°C° 0 mm 3 mps 727 mmHg 10%
    16:00 +40°C° 0 mm 3 mps 726 mmHg 11%
    17:00 +38°C° 0 mm 2 mps 726 mmHg 13%
    18:00 +35°C° 0 mm 2 mps 726 mmHg 15%
    19:00 +32°C° 0 mm 1 mps 727 mmHg 17%
    20:00 +31°C° 0 mm 2 mps 727 mmHg 18%
    21:00 +30°C° 0 mm 2 mps 727 mmHg 19%
    22:00 +29°C° 0 mm 2 mps 728 mmHg 20%
    23:00 +29°C° 0 mm 1 mps 728 mmHg 21%

    22 November, Friday

    Time Temperature Precipitation Wind Pressure Humidity
    00:00 +28°C° 0 mm 1 mps 728 mmHg 21%
    01:00 +28°C° 0 mm 1 mps 728 mmHg 22%
    02:00 +27°C° 0 mm 1 mps 728 mmHg 23%
    03:00 +27°C° 0 mm 1 mps 728 mmHg 23%
    04:00 +26°C° 0 mm 1 mps 728 mmHg 24%
    05:00 +26°C° 0 mm 1 mps 728 mmHg 25%
    06:00 +26°C° 0 mm 1 mps 728 mmHg 26%
    07:00 +27°C° 0 mm 1 mps 729 mmHg 27%
    08:00 +30°C° 0 mm 2 mps 729 mmHg 23%
    09:00 +34°C° 0 mm 2 mps 729 mmHg 18%
    10:00 +37°C° 0 mm 3 mps 730 mmHg 14%
    11:00 +38°C° 0 mm 3 mps 729 mmHg 13%
    12:00 +39°C° 0 mm 3 mps 728 mmHg 11%
    13:00 +42°C° 0 mm 3 mps 727 mmHg 10%
    14:00 +40°C° 0 mm 3 mps 727 mmHg 10%
    15:00 +41°C° 0 mm 4 mps 727 mmHg 11%
    16:00 +41°C° 0 mm 4 mps 726 mmHg 11%
    17:00 +37°C° 0 mm 4 mps 726 mmHg 13%
    18:00 +35°C° 0 mm 3 mps 727 mmHg 15%
    19:00 +31°C° 0 mm 2 mps 727 mmHg 17%
    20:00 +31°C° 0 mm 3 mps 727 mmHg 16%
    21:00 +30°C° 0 mm 3 mps 728 mmHg 16%
    22:00 +29°C° 0 mm 3 mps 728 mmHg 15%
    23:00 +28°C° 0 mm 3 mps 728 mmHg 15%

    23 November, Saturday

    Time Temperature Precipitation Wind Pressure Humidity
    00:00 +28°C° 0 mm 2 mps 728 mmHg 15%
    01:00 +27°C° 0 mm 2 mps 728 mmHg 16%
    02:00 +26°C° 0 mm 2 mps 728 mmHg 16%
    03:00 +25°C° 0 mm 2 mps 728 mmHg 16%
    04:00 +25°C° 0 mm 2 mps 728 mmHg 17%
    05:00 +25°C° 0 mm 1 mps 729 mmHg 18%
    06:00 +25°C° 0 mm 1 mps 729 mmHg 19%
    07:00 +25°C° 0 mm 1 mps 729 mmHg 21%
    08:00 +28°C° 0 mm 1 mps 730 mmHg 17%
    09:00 +32°C° 0 mm 1 mps 730 mmHg 14%
    10:00 +36°C° 0 mm 2 mps 730 mmHg 11%
    11:00 +37°C° 0 mm 2 mps 730 mmHg 10%
    12:00 +38°C° 0 mm 2 mps 729 mmHg 9%
    13:00 +40°C° 0 mm 2 mps 728 mmHg 8%
    14:00 +39°C° 0 mm 2 mps 728 mmHg 9%
    15:00 +39°C° 0 mm 2 mps 727 mmHg 9%
    16:00 +39°C° 0 mm 2 mps 727 mmHg 9%
    17:00 +35°C° 0 mm 1 mps 727 mmHg 11%
    18:00 +33°C° 0 mm 1 mps 727 mmHg 12%
    19:00 +30°C° 0 mm 1 mps 728 mmHg 14%
    20:00 +30°C° 0 mm 1 mps 728 mmHg 16%
    21:00 +29°C° 0 mm 1 mps 728 mmHg 17%
    22:00 +28°C° 0 mm 1 mps 729 mmHg 19%
    23:00 +27°C° 0 mm 1 mps 729 mmHg 21%
    Show more